When you browse on this site, cookies collect data to enhance your experience and personalize the content and advertising you see.
Visit our Privacy Policy to learn more. By continuing to use the site, you agree to this use of cookies and data.
  • In United Kingdom
  • List of Countries
  • For 7 days
  • Water Temperature
  • Weather Map
  • Weather Widgets
  • user-avatar
    Login

    Hourly Weather Garmisch-Partenkirchen

    Today, 25 August, Sunday

    Time Temperature Precipitation Wind Pressure Humidity
    00:00 +15°C° 0 mm 1 mps 679 mmHg 91%
    01:00 +15°C° 0 mm 1 mps 678 mmHg 91%
    02:00 +15°C° 0 mm 1 mps 679 mmHg 91%
    03:00 +15°C° 0 mm 1 mps 679 mmHg 90%
    04:00 +14°C° 0 mm 1 mps 679 mmHg 90%
    05:00 +15°C° 0 mm 1 mps 679 mmHg 89%
    06:00 +16°C° 0 mm 1 mps 679 mmHg 88%
    07:00 +18°C° 0 mm 1 mps 679 mmHg 86%
    08:00 +20°C° 0.1 mm 1 mps 680 mmHg 78%
    09:00 +22°C° 0.1 mm 1 mps 680 mmHg 69%
    10:00 +25°C° 0.1 mm 1 mps 681 mmHg 61%
    11:00 +24°C° 1.2 mm 1 mps 680 mmHg 65%
    12:00 +24°C° 1.2 mm 1 mps 680 mmHg 68%
    13:00 +24°C° 1.2 mm 1 mps 680 mmHg 72%
    14:00 +24°C° 1.5 mm 1 mps 680 mmHg 76%
    15:00 +23°C° 1.5 mm 1 mps 679 mmHg 80%
    16:00 +22°C° 1.5 mm 1 mps 679 mmHg 83%
    17:00 +19°C° 0.9 mm 0 mps 679 mmHg 85%
    18:00 +18°C° 0.9 mm 0 mps 679 mmHg 88%
    19:00 +17°C° 0.9 mm 0 mps 679 mmHg 90%
    20:00 +16°C° 0.2 mm 0 mps 679 mmHg 90%
    21:00 +16°C° 0.2 mm 1 mps 679 mmHg 91%
    22:00 +15°C° 0.2 mm 1 mps 679 mmHg 92%
    23:00 +15°C° 0 mm 1 mps 679 mmHg 92%

    Tomorrow, 26 August, Monday

    Time Temperature Precipitation Wind Pressure Humidity
    00:00 +15°C° 0 mm 1 mps 679 mmHg 92%
    01:00 +14°C° 0 mm 1 mps 679 mmHg 92%
    02:00 +14°C° 0 mm 1 mps 679 mmHg 92%
    03:00 +14°C° 0 mm 1 mps 678 mmHg 92%
    04:00 +14°C° 0 mm 1 mps 678 mmHg 92%
    05:00 +15°C° 0 mm 1 mps 678 mmHg 91%
    06:00 +16°C° 0 mm 1 mps 679 mmHg 89%
    07:00 +16°C° 0 mm 1 mps 679 mmHg 88%
    08:00 +20°C° 0 mm 1 mps 679 mmHg 77%
    09:00 +23°C° 0 mm 1 mps 680 mmHg 67%
    10:00 +24°C° 0 mm 0 mps 680 mmHg 56%
    11:00 +26°C° 0.2 mm 1 mps 680 mmHg 56%
    12:00 +26°C° 0.2 mm 1 mps 680 mmHg 55%
    13:00 +27°C° 0.2 mm 2 mps 680 mmHg 55%
    14:00 +26°C° 0.9 mm 2 mps 680 mmHg 61%
    15:00 +25°C° 0.9 mm 2 mps 679 mmHg 66%
    16:00 +25°C° 0.9 mm 2 mps 679 mmHg 72%
    17:00 +23°C° 0.9 mm 1 mps 679 mmHg 79%
    18:00 +21°C° 0.9 mm 1 mps 678 mmHg 86%
    19:00 +17°C° 0.9 mm 0 mps 678 mmHg 92%
    20:00 +18°C° 0.1 mm 1 mps 678 mmHg 92%
    21:00 +18°C° 0.1 mm 1 mps 678 mmHg 92%
    22:00 +16°C° 0.1 mm 1 mps 678 mmHg 92%
    23:00 +16°C° 0 mm 1 mps 678 mmHg 92%

    Day after tomorrow, 27 August, Tuesday

    Time Temperature Precipitation Wind Pressure Humidity
    00:00 +15°C° 0 mm 1 mps 678 mmHg 92%
    01:00 +15°C° 0 mm 1 mps 678 mmHg 91%
    02:00 +15°C° 0 mm 1 mps 678 mmHg 91%
    03:00 +14°C° 0 mm 1 mps 678 mmHg 90%
    04:00 +14°C° 0 mm 1 mps 678 mmHg 90%
    05:00 +15°C° 0 mm 1 mps 678 mmHg 89%
    06:00 +16°C° 0 mm 1 mps 678 mmHg 88%
    07:00 +18°C° 0 mm 1 mps 678 mmHg 86%
    08:00 +21°C° 0 mm 1 mps 679 mmHg 75%
    09:00 +24°C° 0 mm 1 mps 680 mmHg 63%
    10:00 +25°C° 0 mm 0 mps 681 mmHg 51%
    11:00 +28°C° 0 mm 1 mps 681 mmHg 47%
    12:00 +28°C° 0 mm 1 mps 681 mmHg 43%
    13:00 +29°C° 0 mm 1 mps 680 mmHg 39%
    14:00 +28°C° 0 mm 1 mps 680 mmHg 42%
    15:00 +28°C° 0 mm 2 mps 680 mmHg 45%
    16:00 +27°C° 0 mm 2 mps 679 mmHg 49%
    17:00 +25°C° 0 mm 1 mps 679 mmHg 61%
    18:00 +22°C° 0 mm 1 mps 678 mmHg 73%
    19:00 +18°C° 0 mm 0 mps 678 mmHg 85%
    20:00 +19°C° 0 mm 1 mps 678 mmHg 86%
    21:00 +18°C° 0 mm 1 mps 678 mmHg 86%
    22:00 +18°C° 0 mm 1 mps 678 mmHg 87%
    23:00 +18°C° 0 mm 1 mps 678 mmHg 86%

    28 August, Wednesday

    Time Temperature Precipitation Wind Pressure Humidity
    00:00 +16°C° 0 mm 1 mps 678 mmHg 86%
    01:00 +16°C° 0 mm 1 mps 678 mmHg 85%
    02:00 +16°C° 0 mm 1 mps 677 mmHg 85%
    03:00 +16°C° 0 mm 1 mps 677 mmHg 84%
    04:00 +16°C° 0 mm 1 mps 677 mmHg 84%
    05:00 +16°C° 0 mm 1 mps 677 mmHg 82%
    06:00 +18°C° 0 mm 1 mps 677 mmHg 80%
    07:00 +19°C° 0 mm 1 mps 678 mmHg 78%
    08:00 +22°C° 0 mm 1 mps 678 mmHg 69%
    09:00 +25°C° 0 mm 1 mps 679 mmHg 59%
    10:00 +25°C° 0 mm 0 mps 679 mmHg 50%
    11:00 +27°C° 0.3 mm 1 mps 679 mmHg 51%
    12:00 +28°C° 0.3 mm 1 mps 678 mmHg 52%
    13:00 +28°C° 0.3 mm 1 mps 678 mmHg 53%
    14:00 +26°C° 1.6 mm 1 mps 678 mmHg 62%
    15:00 +25°C° 1.6 mm 1 mps 677 mmHg 71%
    16:00 +24°C° 1.6 mm 1 mps 677 mmHg 80%
    17:00 +23°C° 1.4 mm 1 mps 676 mmHg 83%
    18:00 +21°C° 1.4 mm 1 mps 676 mmHg 87%
    19:00 +17°C° 1.4 mm 0 mps 676 mmHg 90%
    20:00 +19°C° 0.5 mm 1 mps 676 mmHg 90%
    21:00 +19°C° 0.5 mm 1 mps 676 mmHg 90%
    22:00 +18°C° 0.5 mm 1 mps 676 mmHg 89%
    23:00 +18°C° 0 mm 1 mps 676 mmHg 89%

    29 August, Thursday

    Time Temperature Precipitation Wind Pressure Humidity
    00:00 +16°C° 0 mm 1 mps 676 mmHg 89%
    01:00 +16°C° 0 mm 1 mps 676 mmHg 89%
    02:00 +16°C° 0.1 mm 1 mps 676 mmHg 89%
    03:00 +15°C° 0.1 mm 1 mps 676 mmHg 89%
    04:00 +15°C° 0.1 mm 1 mps 676 mmHg 89%
    05:00 +16°C° 0.5 mm 1 mps 676 mmHg 89%
    06:00 +16°C° 0.5 mm 1 mps 676 mmHg 89%
    07:00 +18°C° 0.5 mm 1 mps 676 mmHg 89%
    08:00 +19°C° 0.5 mm 1 mps 677 mmHg 88%
    09:00 +20°C° 0.5 mm 1 mps 677 mmHg 86%
    10:00 +21°C° 0.5 mm 1 mps 678 mmHg 84%
    11:00 +22°C° 1.1 mm 1 mps 678 mmHg 82%
    12:00 +22°C° 1.1 mm 1 mps 678 mmHg 80%
    13:00 +23°C° 1.1 mm 1 mps 678 mmHg 79%
    14:00 +22°C° 1.2 mm 1 mps 678 mmHg 82%
    15:00 +22°C° 1.2 mm 1 mps 677 mmHg 85%
    16:00 +21°C° 1.2 mm 1 mps 677 mmHg 89%
    17:00 +20°C° 0.7 mm 1 mps 677 mmHg 91%
    18:00 +19°C° 0.7 mm 1 mps 677 mmHg 93%
    19:00 +16°C° 0.7 mm 0 mps 678 mmHg 95%
    20:00 +18°C° 0.5 mm 1 mps 678 mmHg 95%
    21:00 +16°C° 0.5 mm 1 mps 678 mmHg 95%
    22:00 +16°C° 0.5 mm 1 mps 679 mmHg 95%
    23:00 +16°C° 0.1 mm 1 mps 678 mmHg 95%

    30 August, Friday

    Time Temperature Precipitation Wind Pressure Humidity
    00:00 +16°C° 0.1 mm 1 mps 678 mmHg 95%
    01:00 +14°C° 0.1 mm 0 mps 678 mmHg 95%
    02:00 +14°C° 0 mm 0 mps 678 mmHg 95%
    03:00 +14°C° 0 mm 0 mps 678 mmHg 95%
    04:00 +13°C° 0 mm 0 mps 678 mmHg 96%
    05:00 +14°C° 0 mm 0 mps 678 mmHg 95%
    06:00 +15°C° 0 mm 0 mps 679 mmHg 95%
    07:00 +15°C° 0 mm 0 mps 679 mmHg 95%
    08:00 +16°C° 0.1 mm 0 mps 679 mmHg 91%
    09:00 +17°C° 0.1 mm 0 mps 679 mmHg 88%
    10:00 +21°C° 0.1 mm 1 mps 680 mmHg 85%
    11:00 +21°C° 1 mm 1 mps 679 mmHg 84%
    12:00 +22°C° 1 mm 1 mps 679 mmHg 84%
    13:00 +22°C° 1 mm 1 mps 679 mmHg 83%
    14:00 +22°C° 1.1 mm 1 mps 679 mmHg 85%
    15:00 +22°C° 1.1 mm 1 mps 679 mmHg 87%
    16:00 +21°C° 1.1 mm 1 mps 678 mmHg 89%
    17:00 +20°C° 0.9 mm 1 mps 678 mmHg 92%
    18:00 +17°C° 0.9 mm 0 mps 678 mmHg 95%
    19:00 +16°C° 0.9 mm 0 mps 678 mmHg 97%
    20:00 +16°C° 0.6 mm 0 mps 678 mmHg 97%
    21:00 +16°C° 0.6 mm 1 mps 678 mmHg 96%
    22:00 +16°C° 0.6 mm 1 mps 679 mmHg 96%
    23:00 +15°C° 0 mm 1 mps 678 mmHg 95%
    Show more